sat.trackr.live / text

‹ back to catalog

STARLINK-11184 [DTC]

NORAD 60071 · 2024-113N

PAYLOAD ACTIVE UNKNOWN

§ Identity

Operator
Country
US
Launch date
2024-06-19
Launch site
AFWTR
Launch vehicle
Mass (kg)
RCS (m²)

Purposes: comms

External: N2YO · Heavens-Above · Gunter

§ Orbital elements

Epoch: 2026-05-24T19:21:07.956576Z

Period
91.74 min
Inclination
53.1602°
Eccentricity
0.0001179
Mean motion
15.69727359 rev/d
Perigee alt
358.9 km
Apogee alt
360.5 km
Semi-major
6,737.8 km
B*
-2.5701e-5
RAAN
176.2062°
Arg perigee
71.0166°
Mean anomaly
289.0979°
Rev number
11,151

§ Raw data

STARLINK-11184 [DTC]1 60071U 24113N   26144.80634209 -.00003703  00000+0 -25701-4 0  99972 60071  53.1602 176.2062 0001179  71.0166 289.0979 15.69727359111513

JSON: /api/v1/satellites/60071 · /tle

For live sub-satellite position, see the globe view (requires WebGL).

§ Visibility from observer

Set your observer location to see the next 7 days of passes ≥ 10°. The values pass through the URL so the page stays shareable.

No JS? Fill the form by hand. The geolocation button needs JavaScript.